"Pseudo-MPEC" for P115ZDp

Created 2020 Sep 19 11:07:29 UT using Find_Orb

Click here for an explanation of pseudo-MPECs

 
 Astrometry: 
     P115ZDp  C2020 09 09KI)920],y?h^V.ZIU?'eO`^Ir@1qF7tPP,H`CT9cC?GSN[W]!8H*F51
     P115ZDp  C2020 09 09x`SKdvM!pWQ#%k3*c0JedRFui!37Astrometry+fw^kX#g_$70nuF51
     P115ZDp  C2020 09 14!o.,2?0Q]RX+SEv91MQ+TCjY[`CO[DxD*1c:bV:XaH#7aie8EpGiF51
     P115ZDp  C2020 09 14aZ$G#S]!R'redacted;,=D%DWtVrB30]OOclickHEvk`0o.3E5TLF51
     P115ZDp  C2020 09 14uqJuQn,%$Y!7C8nrgphere=;$N0f21+A7la!w/.gg#X0;L\]vyU7F51
     P115ZDp  C2020 09 14W]GCy4.*Uyd!`fyINUjoYIYNu;foreLn@cL$1IWyX.W/rFbuNfCQF51
     P115ZDp ^C2020 09 15.35344800 12 50.673-22 49 07.71   ~9GNM 22.45GVNEOCP568
     P115ZDp ^C2020 09 15.35439700 12 50.469-22 49 12.24   ~9GNM 22.33GVNEOCP568
     P115ZDp  C2020 09 155V%dqE6@elCe;UMqL_w5Wxx,LLpm;LRKprkJd4iYi-a:3F8IW6GcF51
     P115ZDp  C2020 09 15b=62dQmj1E\=-`[APne7U%%!qNXaOv$lfj0q]](?yI%ZE/Od!^i`F51
     P115ZDp  C2020 09 16;.r]n)Zq9R.9570.jYgK$QThR822RMtK)W?0:T[-,iuZ0)KDJvH!F52
     P115ZDp  C2020 09 16*k-vW?O*93J?wMX%Y.\6k-Z]]=g(%d_D9C8m0f.5:@:Mv@\Y1MfEF52
     P115ZDp  C2020 09 16CJ\;kd@/IHF0oW'\?v9VI6Q+o35aexplanation09xK+bE:fd=2NF52
     P115ZDp ^C2020 09 17.37393100 06 13.541-25 19 08.31   ~9HHq 21.64GVNEOCP568
     P115ZDp ^C2020 09 17.37510800 06 13.279-25 19 13.68   ~9HHq 21.72GVNEOCP568
     P115ZDp ^C2020 09 17.37628500 06 13.044-25 19 18.42   ~9HHq 21.71GVNEOCP568

Station data:
(568) Mauna Kea  (N19.826116 W155.472200)  US/Hawaii.
(F51) Pan-STARRS 1, Haleakala  (N20.707235 W156.255910)  US/Hawaii.
   Observers N. Primak, A. Schultz, S. Watters, J. Thiel, T. Goggia. Measurer
   PS1 Science Consortium. 1.8-m Ritchey-Chrétien + CCD.
(F52) Pan-STARRS 2, Haleakala  (N20.707384 W156.255910)  US/Hawaii. 1.8-m
   Ritchey-Chrétien + CCD.

Orbital elements:  P115ZDp
   Perihelion 2020 May 19.182991 +/- 0.0722 TT =  4:23:30 (JD 2458988.682991)
Epoch 2020 Sep 17.0 TT = JDT 2459109.5   Earth MOID: 0.0957   Ve: 0.0433
M 124.02411036 +/- 0.13             (J2000 ecliptic)          AutoNEOCP
n   1.02654511 +/- 0.000474         Peri.   42.94355 +/- 0.023
a   0.97323418 +/- 0.0003           Node   162.41539 +/- 0.015
e   0.3377047 +/- 0.000781          Incl.   20.54924 +/- 0.07
P   0.96/350.68d           H 24.1   G  0.15   U  7.6  
q 0.64456840 +/- 0.000562    Q 1.30189995 +/- 0.00116
From 16 observations 2020 Sept. 9-17; mean residual 0".16
Residuals in arcseconds: 
200909 F51  .17-  .33-    200915 568  .01-  .04+    200916 F52  .05-  .09-    
200909 F51  .16+  .35+    200915 568  .03-  .04+    200917 568  .06+  .15+    
200914 F51  .11-  .05-    200915 F51  .15+  .07+    200917 568  .18-  .24-    
200914 F51  .05-  .10-    200915 F51  .08+  .05+    200917 568  .05-  .01+    
200914 F51  .04-  .16-    200916 F52  .27+  .26-    
200914 F51  .07+  .02+    200916 F52  .10-  .43+    

Ephemerides (geocentric):
Date (UTC) HH   RA              Dec         delta   r     elong  mag " sig PA
---- -- -- --  -------------   -----------  ------ ------ -----  --- ---- ---
2020 09 19 11  23 59 40.815   -27 35 24.99  .23779 1.2220 153.6 22.5 .603 140
2020 09 19 12  23 59 33.192   -27 37 58.13  .23802 1.2221 153.5 22.5 .612 140
2020 09 19 13  23 59 25.578   -27 40 30.87  .23826 1.2223 153.5 22.5 .621 140
2020 09 19 14  23 59 17.972   -27 43 03.18  .23849 1.2224 153.4 22.5 .630 140
2020 09 19 15  23 59 10.374   -27 45 35.09  .23872 1.2225 153.4 22.5 .639 140
2020 09 19 16  23 59 02.785   -27 48 06.58  .23896 1.2226 153.3 22.5 .648 141
2020 09 19 17  23 58 55.204   -27 50 37.66  .23919 1.2228 153.3 22.5 .658 141
2020 09 19 18  23 58 47.632   -27 53 08.32  .23943 1.2229 153.2 22.5 .667 141
2020 09 19 19  23 58 40.068   -27 55 38.58  .23967 1.2230 153.2 22.5 .676 141
2020 09 19 20  23 58 32.513   -27 58 08.42  .23990 1.2231 153.1 22.5 .685 141
2020 09 19 21  23 58 24.966   -28 00 37.86  .24014 1.2233 153.1 22.5 .695 141
2020 09 19 22  23 58 17.428   -28 03 06.88  .24037 1.2234 153.0 22.5 .704 141
2020 09 19 23  23 58 09.898   -28 05 35.50  .24061 1.2235 153.0 22.5 .714 142
2020 09 20 00  23 58 02.377   -28 08 03.71  .24085 1.2237 152.9 22.5 .723 142
2020 09 20 01  23 57 54.865   -28 10 31.51  .24109 1.2238 152.8 22.6 .733 142
2020 09 20 02  23 57 47.362   -28 12 58.90  .24132 1.2239 152.8 22.6 .743 142
2020 09 20 03  23 57 39.867   -28 15 25.89  .24156 1.2240 152.7 22.6 .752 142
2020 09 20 04  23 57 32.380   -28 17 52.47  .24180 1.2242 152.7 22.6 .762 142
2020 09 20 05  23 57 24.903   -28 20 18.65  .24204 1.2243 152.6 22.6 .772 143
2020 09 20 06  23 57 17.434   -28 22 44.42  .24228 1.2244 152.6 22.6 .782 143
2020 09 20 07  23 57 09.974   -28 25 09.79  .24252 1.2245 152.5 22.6 .792 143
2020 09 20 08  23 57 02.523   -28 27 34.76  .24276 1.2247 152.5 22.6 .802 143
2020 09 20 09  23 56 55.080   -28 29 59.32  .24300 1.2248 152.4 22.6 .812 143
2020 09 20 10  23 56 47.647   -28 32 23.48  .24324 1.2249 152.4 22.6 .822 143
2020 09 20 11  23 56 40.222   -28 34 47.24  .24348 1.2250 152.3 22.6 .832 144
2020 09 20 12  23 56 32.806   -28 37 10.60  .24372 1.2252 152.3 22.6 .842 144
2020 09 20 13  23 56 25.399   -28 39 33.55  .24396 1.2253 152.2 22.6 .853 144
2020 09 20 14  23 56 18.001   -28 41 56.11  .24420 1.2254 152.2 22.6 .863 144
2020 09 20 15  23 56 10.611   -28 44 18.27  .24445 1.2255 152.1 22.6 .873 144
2020 09 20 16  23 56 03.231   -28 46 40.03  .24469 1.2257 152.1 22.6 .884 144
2020 09 20 17  23 55 55.860   -28 49 01.40  .24493 1.2258 152.0 22.6 .894 144
2020 09 20 18  23 55 48.497   -28 51 22.37  .24517 1.2259 151.9 22.6 .905 145
2020 09 20 19  23 55 41.144   -28 53 42.94  .24542 1.2260 151.9 22.6 .916 145
2020 09 20 20  23 55 33.799   -28 56 03.11  .24566 1.2262 151.8 22.6 .926 145
2020 09 20 21  23 55 26.464   -28 58 22.89  .24591 1.2263 151.8 22.6 .937 145
2020 09 20 22  23 55 19.137   -29 00 42.28  .24615 1.2264 151.7 22.6 .948 145
2020 09 20 23  23 55 11.820   -29 03 01.27  .24639 1.2265 151.7 22.6 .959 145
2020 09 21 00  23 55 04.512   -29 05 19.87  .24664 1.2267 151.6 22.6 .970 146
2020 09 21 01  23 54 57.212   -29 07 38.07  .24688 1.2268 151.6 22.6 .981 146
2020 09 21 02  23 54 49.922   -29 09 55.89  .24713 1.2269 151.5 22.6 0.99 146
2020 09 21 03  23 54 42.641   -29 12 13.31  .24737 1.2270 151.5 22.6 1.00 146
2020 09 21 04  23 54 35.369   -29 14 30.34  .24762 1.2272 151.4 22.6 1.01 146
2020 09 21 05  23 54 28.107   -29 16 46.98  .24787 1.2273 151.4 22.7 1.03 146
2020 09 21 06  23 54 20.853   -29 19 03.24  .24811 1.2274 151.3 22.7 1.04 147
2020 09 21 07  23 54 13.609   -29 21 19.10  .24836 1.2275 151.3 22.7 1.05 147
2020 09 21 08  23 54 06.374   -29 23 34.58  .24861 1.2276 151.2 22.7 1.06 147
2020 09 21 09  23 53 59.148   -29 25 49.67  .24885 1.2278 151.1 22.7 1.07 147
2020 09 21 10  23 53 51.931   -29 28 04.37  .24910 1.2279 151.1 22.7 1.08 147